Time,TemperatureF,DewpointF,PressureIn,WindDirection,WindDirectionDegrees,WindSpeedMPH,WindSpeedGustMPH,Humidity,HourlyPrecipIn,Conditions,Clouds,dailyrainin,SoftwareType,DateUTC
2013-03-15 00:02:00,33.0,31.0,30.08,SSW,198,6.0,12.0,94,0.00,,,0.01,,2013-03-15 05:02:00,
2013-03-15 00:12:00,33.0,31.0,30.08,SSW,198,6.0,12.0,94,0.00,,,0.01,,2013-03-15 05:12:00,
2013-03-15 00:22:00,33.0,31.0,30.07,SSW,203,6.0,12.0,94,0.00,,,0.01,,2013-03-15 05:22:00,
2013-03-15 00:32:00,33.0,31.0,30.07,SSW,206,6.0,8.0,94,0.00,,,0.01,,2013-03-15 05:32:00,
2013-03-15 00:42:00,33.0,31.0,30.07,SSW,206,6.0,8.0,94,0.00,,,0.01,,2013-03-15 05:42:00,
2013-03-15 00:52:00,33.0,31.0,30.06,SSW,195,6.0,13.0,93,0.00,,,0.01,,2013-03-15 05:52:00,
2013-03-15 01:02:00,33.0,31.0,30.06,SSW,209,6.0,11.0,93,0.00,,,0.01,,2013-03-15 06:02:00,
2013-03-15 01:12:00,33.0,31.0,30.06,SSW,209,6.0,11.0,93,0.00,,,0.01,,2013-03-15 06:12:00,
2013-03-15 01:22:00,33.0,31.0,30.06,SSW,211,5.0,8.0,93,0.00,,,0.01,,2013-03-15 06:22:00,
2013-03-15 01:32:00,33.0,31.0,30.06,SSW,198,4.0,7.0,93,0.00,,,0.01,,2013-03-15 06:32:00,
2013-03-15 01:42:00,33.0,31.0,30.06,SSW,198,4.0,7.0,93,0.00,,,0.01,,2013-03-15 06:42:00,
2013-03-15 01:52:00,32.0,30.0,30.06,SSW,207,2.0,5.0,93,0.00,,,0.01,,2013-03-15 06:52:00,
2013-03-15 02:02:00,32.0,30.0,30.06,SW,221,2.0,5.0,94,0.00,,,0.01,,2013-03-15 07:02:00,
2013-03-15 02:12:00,32.0,30.0,30.06,SW,221,2.0,5.0,94,0.00,,,0.01,,2013-03-15 07:12:00,
2013-03-15 02:22:00,32.0,30.0,30.06,SSW,206,2.0,4.0,94,0.00,,,0.01,,2013-03-15 07:22:00,
2013-03-15 02:32:00,32.0,30.0,30.06,SSW,207,1.0,4.0,94,0.00,,,0.01,,2013-03-15 07:32:00,
2013-03-15 02:42:00,32.0,30.0,30.06,SSW,207,1.0,4.0,94,0.00,,,0.01,,2013-03-15 07:42:00,
2013-03-15 02:52:00,31.0,29.0,30.05,SSW,207,1.0,3.0,94,0.00,,,0.01,,2013-03-15 07:52:00,
2013-03-15 03:02:00,30.0,28.0,30.04,SSW,207,1.0,2.0,94,0.00,,,0.01,,2013-03-15 08:02:00,
2013-03-15 03:12:00,30.0,28.0,30.04,SSW,207,1.0,2.0,94,0.00,,,0.01,,2013-03-15 08:12:00,
2013-03-15 03:22:00,31.0,30.0,30.03,SSW,204,3.0,4.0,95,0.00,,,0.01,,2013-03-15 08:22:00,
2013-03-15 03:33:00,31.0,30.0,30.02,SSW,207,3.0,5.0,95,0.00,,,0.01,,2013-03-15 08:33:00,
2013-03-15 03:42:00,31.0,30.0,30.02,SSW,207,3.0,5.0,95,0.00,,,0.01,,2013-03-15 08:42:00,
2013-03-15 03:52:00,31.0,30.0,30.01,SSW,207,4.0,6.0,95,0.00,,,0.01,,2013-03-15 08:52:00,
2013-03-15 04:02:00,31.0,30.0,30.00,SSW,207,2.0,6.0,95,0.00,,,0.01,,2013-03-15 09:02:00,
2013-03-15 04:12:00,31.0,30.0,30.00,SSW,207,2.0,6.0,95,0.00,,,0.01,,2013-03-15 09:12:00,
2013-03-15 04:22:00,31.0,30.0,30.01,SSW,196,2.0,5.0,95,0.00,,,0.01,,2013-03-15 09:22:00,
2013-03-15 04:33:00,31.0,30.0,30.01,SSW,196,2.0,5.0,95,0.00,,,0.01,,2013-03-15 09:33:00,
2013-03-15 04:43:00,31.0,30.0,30.01,SSW,196,2.0,5.0,95,0.00,,,0.01,,2013-03-15 09:43:00,
2013-03-15 04:52:00,31.0,29.0,29.99,SSW,199,2.0,5.0,94,0.00,,,0.01,,2013-03-15 09:52:00,
2013-03-15 05:03:00,31.0,29.0,29.98,SSW,202,3.0,5.0,94,0.00,,,0.01,,2013-03-15 10:03:00,
2013-03-15 05:12:00,31.0,29.0,29.98,SSW,202,3.0,5.0,94,0.00,,,0.01,,2013-03-15 10:12:00,
2013-03-15 05:23:00,31.0,29.0,29.97,SSW,202,2.0,5.0,94,0.00,,,0.01,,2013-03-15 10:23:00,
2013-03-15 05:33:00,31.0,30.0,29.96,SSW,203,3.0,4.0,95,0.00,,,0.01,,2013-03-15 10:33:00,
2013-03-15 05:42:00,31.0,30.0,29.96,SSW,203,3.0,4.0,95,0.00,,,0.01,,2013-03-15 10:42:00,
2013-03-15 05:52:00,31.0,30.0,29.97,SSW,203,3.0,5.0,95,0.00,,,0.01,,2013-03-15 10:52:00,
2013-03-15 06:03:00,31.0,30.0,29.96,SSW,205,3.0,5.0,95,0.00,,,0.01,,2013-03-15 11:03:00,
2013-03-15 06:12:00,31.0,30.0,29.96,SSW,205,3.0,5.0,95,0.00,,,0.01,,2013-03-15 11:12:00,
2013-03-15 06:22:00,31.0,30.0,29.97,SW,214,2.0,4.0,95,0.00,,,0.01,,2013-03-15 11:22:00,
2013-03-15 06:32:00,32.0,31.0,29.97,WSW,251,3.0,7.0,95,0.00,,,0.01,,2013-03-15 11:32:00,
2013-03-15 06:42:00,32.0,31.0,29.97,WSW,251,3.0,7.0,95,0.00,,,0.01,,2013-03-15 11:42:00,
2013-03-15 06:52:00,32.0,30.0,29.97,WSW,240,2.0,4.0,93,0.00,,,0.01,,2013-03-15 11:52:00,
2013-03-15 07:02:00,32.0,30.0,29.96,WSW,245,2.0,4.0,93,0.00,,,0.01,,2013-03-15 12:02:00,
2013-03-15 07:12:00,32.0,30.0,29.96,WSW,245,2.0,4.0,93,0.00,,,0.01,,2013-03-15 12:12:00,
2013-03-15 07:23:00,31.0,29.0,29.96,WSW,245,0.0,3.0,94,0.00,,,0.01,,2013-03-15 12:23:00,
2013-03-15 07:32:00,31.0,29.0,29.97,WSW,243,1.0,3.0,94,0.00,,,0.01,,2013-03-15 12:32:00,
2013-03-15 07:42:00,31.0,29.0,29.97,WSW,243,1.0,3.0,94,0.00,,,0.01,,2013-03-15 12:42:00,
2013-03-15 07:52:00,31.0,29.0,29.97,SW,229,1.0,4.0,94,0.00,,,0.01,,2013-03-15 12:52:00,
2013-03-15 08:02:00,31.0,29.0,29.97,SW,229,1.0,4.0,94,0.00,,,0.01,,2013-03-15 13:02:00,
2013-03-15 08:12:00,31.0,29.0,29.97,SW,229,1.0,4.0,94,0.00,,,0.01,,2013-03-15 13:12:00,
2013-03-15 08:22:00,32.0,30.0,29.96,SSW,199,3.0,5.0,94,0.00,,,0.01,,2013-03-15 13:22:00,
2013-03-15 08:32:00,32.0,30.0,29.96,SSW,199,1.0,4.0,94,0.00,,,0.01,,2013-03-15 13:32:00,
2013-03-15 08:42:00,32.0,30.0,29.96,SSW,199,1.0,4.0,94,0.00,,,0.01,,2013-03-15 13:42:00,
2013-03-15 08:52:00,33.0,31.0,29.96,SSW,200,2.0,4.0,94,0.00,,,0.01,,2013-03-15 13:52:00,
2013-03-15 09:02:00,33.0,31.0,29.96,SSW,196,3.0,6.0,94,0.00,,,0.01,,2013-03-15 14:02:00,
2013-03-15 09:12:00,33.0,31.0,29.96,SSW,196,3.0,6.0,94,0.00,,,0.01,,2013-03-15 14:12:00,
2013-03-15 09:22:00,33.0,31.0,29.96,SSW,200,3.0,6.0,94,0.00,,,0.01,,2013-03-15 14:22:00,
2013-03-15 09:32:00,34.0,32.0,29.96,WSW,237,2.0,4.0,94,0.00,,,0.01,,2013-03-15 14:32:00,
2013-03-15 09:42:00,34.0,32.0,29.96,WSW,237,2.0,4.0,94,0.00,,,0.01,,2013-03-15 14:42:00,
2013-03-15 09:52:00,35.0,33.0,29.96,WSW,246,2.0,4.0,93,0.00,,,0.01,,2013-03-15 14:52:00,
2013-03-15 10:02:00,36.0,34.0,29.96,WSW,241,3.0,5.0,92,0.00,,,0.01,,2013-03-15 15:02:00,
2013-03-15 10:13:00,36.0,34.0,29.96,WSW,241,3.0,5.0,92,0.00,,,0.01,,2013-03-15 15:13:00,
2013-03-15 10:22:00,36.0,34.0,29.96,WSW,239,3.0,7.0,91,0.00,,,0.01,,2013-03-15 15:22:00,
2013-03-15 10:33:00,37.0,35.0,29.95,WSW,252,3.0,7.0,91,0.00,,,0.01,,2013-03-15 15:33:00,
2013-03-15 10:42:00,37.0,35.0,29.95,WSW,252,3.0,7.0,91,0.00,,,0.01,,2013-03-15 15:42:00,
2013-03-15 10:52:00,38.0,35.0,29.95,WSW,244,3.0,7.0,90,0.00,,,0.01,,2013-03-15 15:52:00,
2013-03-15 11:03:00,38.0,35.0,29.95,West,270,4.0,6.0,89,0.00,,,0.01,,2013-03-15 16:03:00,
2013-03-15 11:12:00,39.0,36.0,29.93,WSW,238,3.0,6.0,89,0.00,,,0.01,,2013-03-15 16:12:00,
2013-03-15 11:22:00,39.0,36.0,29.93,WSW,238,3.0,6.0,89,0.00,,,0.01,,2013-03-15 16:22:00,
2013-03-15 11:32:00,40.0,36.0,29.93,WSW,244,3.0,6.0,87,0.00,,,0.01,,2013-03-15 16:32:00,
2013-03-15 11:42:00,40.0,36.0,29.93,WSW,244,3.0,6.0,87,0.00,,,0.01,,2013-03-15 16:42:00,
2013-03-15 11:52:00,41.0,38.0,29.92,SW,227,2.0,6.0,88,0.00,,,0.01,,2013-03-15 16:52:00,
2013-03-15 12:02:00,41.0,37.0,29.92,WSW,252,2.0,6.0,87,0.00,,,0.01,,2013-03-15 17:02:00,
2013-03-15 12:12:00,41.0,37.0,29.92,WSW,252,2.0,6.0,87,0.00,,,0.01,,2013-03-15 17:12:00,
2013-03-15 12:22:00,41.0,37.0,29.92,WSW,248,2.0,4.0,87,0.00,,,0.01,,2013-03-15 17:22:00,
2013-03-15 12:32:00,42.0,38.0,29.91,WSW,242,0.0,3.0,87,0.00,,,0.01,,2013-03-15 17:32:00,
2013-03-15 12:42:00,42.0,38.0,29.91,WSW,242,0.0,3.0,87,0.00,,,0.01,,2013-03-15 17:42:00,
2013-03-15 12:52:00,42.0,38.0,29.90,ESE,123,1.0,4.0,87,0.00,,,0.01,,2013-03-15 17:52:00,
2013-03-15 13:02:00,43.0,39.0,29.90,SSW,195,2.0,5.0,87,0.00,,,0.01,,2013-03-15 18:02:00,
2013-03-15 13:12:00,43.0,39.0,29.90,SSW,195,2.0,5.0,87,0.00,,,0.01,,2013-03-15 18:12:00,
2013-03-15 13:22:00,44.0,40.0,29.90,WSW,245,2.0,5.0,86,0.00,,,0.01,,2013-03-15 18:22:00,
2013-03-15 13:32:00,45.0,40.0,29.91,West,270,0.0,3.0,84,0.00,,,0.01,,2013-03-15 18:32:00,
2013-03-15 13:42:00,45.0,40.0,29.91,West,270,0.0,3.0,84,0.00,,,0.01,,2013-03-15 18:42:00,
2013-03-15 13:52:00,45.0,40.0,29.90,WNW,282,2.0,5.0,83,0.00,,,0.01,,2013-03-15 18:52:00,
2013-03-15 14:02:00,46.0,41.0,29.89,West,281,3.0,5.0,83,0.00,,,0.01,,2013-03-15 19:02:00,
2013-03-15 14:12:00,46.0,41.0,29.89,West,281,3.0,5.0,83,0.00,,,0.01,,2013-03-15 19:12:00,
2013-03-15 14:22:00,46.0,41.0,29.89,West,281,3.0,5.0,83,0.00,,,0.01,,2013-03-15 19:22:00,
2013-03-15 14:32:00,46.0,40.0,29.87,North,9,1.0,4.0,80,0.00,,,0.01,,2013-03-15 19:32:00,
2013-03-15 14:42:00,46.0,40.0,29.87,North,9,1.0,4.0,80,0.00,,,0.01,,2013-03-15 19:42:00,
2013-03-15 14:52:00,46.0,41.0,29.86,NNE,15,1.0,3.0,83,0.00,,,0.01,,2013-03-15 19:52:00,
2013-03-15 15:02:00,46.0,41.0,29.85,ENE,65,2.0,4.0,83,0.00,,,0.01,,2013-03-15 20:02:00,
2013-03-15 15:12:00,46.0,41.0,29.85,ENE,65,2.0,4.0,83,0.00,,,0.01,,2013-03-15 20:12:00,
2013-03-15 15:22:00,46.0,41.0,29.85,ENE,68,2.0,5.0,84,0.00,,,0.01,,2013-03-15 20:22:00,
2013-03-15 15:32:00,46.0,42.0,29.85,ENE,62,1.0,4.0,85,0.00,,,0.01,,2013-03-15 20:32:00,
2013-03-15 15:42:00,46.0,42.0,29.85,ENE,62,1.0,4.0,85,0.00,,,0.01,,2013-03-15 20:42:00,
2013-03-15 15:52:00,46.0,42.0,29.85,NE,51,3.0,5.0,86,0.00,,,0.01,,2013-03-15 20:52:00,
2013-03-15 16:02:00,46.0,43.0,29.85,NE,44,3.0,5.0,88,0.00,,,0.01,,2013-03-15 21:02:00,
2013-03-15 16:12:00,46.0,43.0,29.85,NE,44,3.0,5.0,88,0.00,,,0.01,,2013-03-15 21:12:00,
2013-03-15 16:22:00,46.0,43.0,29.85,NE,36,4.0,7.0,88,0.00,,,0.01,,2013-03-15 21:22:00,
2013-03-15 16:33:00,45.0,42.0,29.83,ENE,64,7.0,9.0,89,0.00,,,0.00,,2013-03-15 21:33:00,
2013-03-15 16:43:00,45.0,42.0,29.83,ENE,64,7.0,9.0,89,0.00,,,0.00,,2013-03-15 21:43:00,
2013-03-15 16:52:00,45.0,42.0,29.82,ENE,78,5.0,10.0,90,0.00,,,0.00,,2013-03-15 21:52:00,
2013-03-15 17:03:00,45.0,42.0,29.82,ESE,106,3.0,9.0,89,0.00,,,0.00,,2013-03-15 22:03:00,
2013-03-15 17:13:00,45.0,42.0,29.82,ESE,106,3.0,9.0,89,0.00,,,0.00,,2013-03-15 22:13:00,
2013-03-15 17:22:00,46.0,43.0,29.79,ESE,103,5.0,9.0,89,0.00,,,0.00,,2013-03-15 22:22:00,
2013-03-15 17:32:00,45.0,42.0,29.78,ESE,102,7.0,11.0,89,0.00,,,0.00,,2013-03-15 22:32:00,
2013-03-15 17:42:00,45.0,42.0,29.78,ESE,102,7.0,11.0,89,0.00,,,0.00,,2013-03-15 22:42:00,
2013-03-15 17:52:00,45.0,42.0,29.80,ESE,102,2.0,9.0,90,0.00,,,0.00,,2013-03-15 22:52:00,
2013-03-15 18:02:00,45.0,43.0,29.78,East,85,7.0,9.0,91,0.00,,,0.00,,2013-03-15 23:02:00,
2013-03-15 18:12:00,45.0,43.0,29.78,East,85,7.0,9.0,91,0.00,,,0.00,,2013-03-15 23:12:00,
2013-03-15 18:22:00,44.0,42.0,29.76,East,83,7.0,11.0,91,0.00,,,0.00,,2013-03-15 23:22:00,
2013-03-15 18:32:00,44.0,42.0,29.76,ESE,104,5.0,9.0,92,0.00,,,0.00,,2013-03-15 23:32:00,
2013-03-15 18:42:00,44.0,42.0,29.76,ESE,104,5.0,9.0,92,0.00,,,0.00,,2013-03-15 23:42:00,
2013-03-15 18:52:00,44.0,42.0,29.78,ESE,113,3.0,9.0,91,0.00,,,0.00,,2013-03-15 23:52:00,
2013-03-15 19:02:00,44.0,42.0,29.77,ESE,116,3.0,7.0,91,0.00,,,0.00,,2013-03-16 00:02:00,
2013-03-15 19:12:00,44.0,42.0,29.77,ESE,116,3.0,7.0,91,0.00,,,0.00,,2013-03-16 00:12:00,
2013-03-15 19:22:00,43.0,41.0,29.78,ESE,116,2.0,4.0,92,0.00,,,0.00,,2013-03-16 00:22:00,
2013-03-15 19:32:00,43.0,41.0,29.79,ESE,115,1.0,4.0,93,0.00,,,0.00,,2013-03-16 00:32:00,
2013-03-15 19:42:00,43.0,41.0,29.79,ESE,115,1.0,4.0,93,0.00,,,0.00,,2013-03-16 00:42:00,
2013-03-15 19:52:00,42.0,40.0,29.79,ENE,71,3.0,5.0,93,0.00,,,0.00,,2013-03-16 00:52:00,
2013-03-15 20:02:00,41.0,39.0,29.78,East,80,3.0,5.0,94,0.00,,,0.00,,2013-03-16 01:02:00,
2013-03-15 20:12:00,41.0,39.0,29.78,East,80,3.0,5.0,94,0.00,,,0.00,,2013-03-16 01:12:00,
2013-03-15 20:21:00,41.0,40.0,29.78,East,94,5.0,7.0,95,0.00,,,0.00,,2013-03-16 01:21:00,
2013-03-15 20:32:00,42.0,41.0,29.77,East,98,6.0,8.0,95,0.00,,,0.00,,2013-03-16 01:32:00,
2013-03-15 20:42:00,42.0,41.0,29.77,East,98,6.0,8.0,95,0.00,,,0.00,,2013-03-16 01:42:00,
2013-03-15 20:52:00,42.0,40.0,29.76,ESE,103,6.0,9.0,94,0.00,,,0.00,,2013-03-16 01:52:00,
2013-03-15 21:02:00,42.0,40.0,29.76,East,90,6.0,8.0,94,0.00,,,0.00,,2013-03-16 02:02:00,
2013-03-15 21:12:00,42.0,40.0,29.76,East,90,6.0,8.0,94,0.00,,,0.00,,2013-03-16 02:12:00,
2013-03-15 21:23:00,42.0,40.0,29.75,ENE,78,5.0,8.0,94,0.00,,,0.00,,2013-03-16 02:23:00,
2013-03-15 21:32:00,42.0,41.0,29.75,East,81,6.0,8.0,95,0.00,,,0.00,,2013-03-16 02:32:00,
2013-03-15 21:42:00,42.0,41.0,29.75,East,81,6.0,8.0,95,0.00,,,0.00,,2013-03-16 02:42:00,
2013-03-15 21:52:00,41.0,40.0,29.75,ENE,63,7.0,9.0,95,0.00,,,0.00,,2013-03-16 02:52:00,
2013-03-15 22:02:00,40.0,39.0,29.73,ENE,57,9.0,11.0,95,0.00,,,0.00,,2013-03-16 03:02:00,
2013-03-15 22:12:00,40.0,39.0,29.73,ENE,57,9.0,11.0,95,0.00,,,0.00,,2013-03-16 03:12:00,
2013-03-15 22:22:00,40.0,39.0,29.73,ENE,57,9.0,11.0,95,0.00,,,0.00,,2013-03-16 03:22:00,
2013-03-15 22:32:00,39.0,38.0,29.74,NE,48,9.0,15.0,95,0.00,,,0.00,,2013-03-16 03:32:00,
2013-03-15 22:43:00,39.0,38.0,29.74,NE,48,9.0,15.0,95,0.00,,,0.00,,2013-03-16 03:43:00,
2013-03-15 22:53:00,38.0,37.0,29.73,NE,51,10.0,14.0,96,0.00,,,0.00,,2013-03-16 03:53:00,
2013-03-15 23:02:00,37.0,36.0,29.72,ENE,75,11.0,15.0,96,0.00,,,0.00,,2013-03-16 04:02:00,
2013-03-15 23:12:00,37.0,36.0,29.72,ENE,75,11.0,15.0,96,0.00,,,0.00,,2013-03-16 04:12:00,
2013-03-15 23:23:00,37.0,36.0,29.71,ENE,74,10.0,14.0,97,0.00,,,0.00,,2013-03-16 04:23:00,
2013-03-15 23:32:00,37.0,36.0,29.70,ENE,67,9.0,15.0,97,0.00,,,0.00,,2013-03-16 04:32:00,
2013-03-15 23:43:00,37.0,36.0,29.70,ENE,67,9.0,15.0,97,0.00,,,0.00,,2013-03-16 04:43:00,
2013-03-15 23:52:00,36.0,35.0,29.71,ENE,64,8.0,13.0,97,0.00,,,0.00,,2013-03-16 04:52:00,